Weather History for KTCM - December, 2013

Change the Weather History Date:

Wednesday, December 25, 2013

  Actual Average Record
Temperature  
Mean Temperature 34 °F -  
Max Temperature 41 °F 43 °F 64 °F (1980)
Min Temperature 28 °F 31 °F 16 °F (1962)
Degree Days  
Heating Degree Days 30    
Moisture  
Dew Point 34 °F    
Average Humidity 99    
Maximum Humidity 100    
Minimum Humidity 93    
Precipitation  
Precipitation 0.00 in - - ()
Sea Level Pressure  
Sea Level Pressure 30.47 in    
Wind  
Wind Speed 1 mph (SSE)    
Max Wind Speed 6 mph    
Max Gust Speed -    
Visibility 3 miles    
Events Fog    
Averages and records for this station are not official NWS values.
T = Trace of Precipitation, MM = Missing Value Source: NWS Daily Summary

Daily Weather History Graph

Daily Weather History Graph

Search for Another Location

Airport or City:

Trip Planner

Search our weather history database for the weather conditions in past years. The results will help you decide how hot, cold, wet, or windy it might be!

Date:

Astronomy

Dec. 25, 2013 Rise Set
Actual Time 7:55 AM PST 4:25 PM PST
Civil Twilight 7:19 AM PST 5:00 PM PST
Nautical Twilight 6:40 AM PST 5:39 PM PST
Astronomical Twilight 6:03 AM PST 6:17 PM PST
Moon 12:06 AM PST (12/25) 11:51 AM PST (12/25)
Length of Visible Light 9h 41m
Length of Day
8h 30m
Waning Gibbous, 47% of the Moon is Illuminated
Dec 25
Waning Gibbous
Jan 1
New
Jan 7
First Quarter
Jan 15
Full
Jan 23
Last Quarter

Hourly Weather History & Observations

Time (PST) Temp. Windchill Dew Point Humidity Pressure Visibility Wind Dir Wind Speed Gust Speed Precip Events Conditions
12:03 AM 33.8 °F - 33.8 °F 100% 30.53 in 0.2 mi Calm Calm - N/A Fog Fog
12:08 AM 32.0 °F - 32.0 °F 100% 30.53 in 0.2 mi Calm Calm - N/A Fog Fog
12:13 AM 32.0 °F - 32.0 °F 100% 30.53 in 0.2 mi Calm Calm - N/A Fog Fog
12:18 AM 32.0 °F - 32.0 °F 100% 30.52 in 0.5 mi SE 1.2 mph - N/A Fog Fog
12:23 AM 32.0 °F - 32.0 °F 100% 30.52 in 0.5 mi East 1.2 mph - N/A Fog Fog
12:28 AM 32.0 °F - 32.0 °F 100% 30.52 in 0.8 mi Calm Calm - N/A   Clear
12:33 AM 32.0 °F - 32.0 °F 100% 30.52 in 5.0 mi Calm Calm - N/A   Clear
12:43 AM 32.0 °F - 32.0 °F 100% 30.52 in 2.0 mi Calm Calm - N/A   Clear
12:48 AM 32.0 °F - 32.0 °F 100% 30.51 in 0.8 mi Calm Calm - N/A   Clear
12:53 AM 32.0 °F - 32.0 °F 100% 30.51 in 0.5 mi Calm Calm - N/A Fog Fog
12:58 AM 32.4 °F - 32.2 °F 99% 30.53 in 0.5 mi ESE 1.2 mph - N/A Fog Fog
1:03 AM 32.0 °F - 32.0 °F 100% 30.51 in 0.5 mi ESE 1.2 mph - N/A Fog Light Freezing Fog
1:18 AM 32.0 °F - 32.0 °F 100% 30.51 in 0.5 mi ENE 1.2 mph - N/A Fog Light Freezing Fog
1:23 AM 32.0 °F - 32.0 °F 100% 30.51 in 0.8 mi Calm Calm - N/A   Clear
1:28 AM 32.0 °F - 32.0 °F 100% 30.51 in 0.5 mi East 2.3 mph - N/A Fog Light Freezing Fog
1:38 AM 30.2 °F - 30.2 °F 100% 30.51 in 0.5 mi East 2.3 mph - N/A Fog Light Freezing Fog
1:43 AM 32.0 °F - 32.0 °F 100% 30.50 in 0.5 mi East 2.3 mph - N/A Fog Light Freezing Fog
1:48 AM 32.0 °F - 32.0 °F 100% 30.50 in 0.8 mi East 1.2 mph - N/A   Clear
1:53 AM 32.0 °F - 32.0 °F 100% 30.50 in 0.8 mi Calm Calm - N/A   Clear
1:58 AM 32.0 °F - 32.0 °F 100% 30.52 in 0.5 mi ESE 1.2 mph - N/A Fog Light Freezing Fog
2:03 AM 32.0 °F - 32.0 °F 100% 30.50 in 0.5 mi Calm Calm - N/A Fog Light Freezing Fog
2:13 AM 32.0 °F - 32.0 °F 100% 30.50 in 0.5 mi Calm Calm - N/A Fog Light Freezing Fog
2:23 AM 30.2 °F - 30.2 °F 100% 30.50 in 0.5 mi ENE 1.2 mph - N/A Fog Light Freezing Fog
2:28 AM 28.4 °F - 28.4 °F 100% 30.50 in 0.8 mi NE 1.2 mph - N/A   Clear
2:38 AM 30.2 °F - 28.4 °F 93% 30.51 in 1.0 mi NNE 1.2 mph - N/A   Clear
2:48 AM 30.2 °F - 30.2 °F 100% 30.51 in 0.8 mi NNE 2.3 mph - N/A   Clear
2:53 AM 32.0 °F - 30.2 °F 93% 30.50 in 0.5 mi Calm Calm - N/A Fog Light Freezing Fog
2:58 AM 32.0 °F - 30.2 °F 93% 30.52 in 0.5 mi North - - N/A Fog Light Freezing Fog
3:03 AM 30.2 °F - 30.2 °F 100% 30.50 in 0.5 mi Calm Calm - N/A Fog Light Freezing Fog
3:13 AM 28.4 °F - 28.4 °F 100% 30.50 in 0.5 mi SE 2.3 mph - N/A Fog Light Freezing Fog
3:18 AM 28.4 °F - 28.4 °F 100% 30.50 in 0.5 mi SE 2.3 mph - N/A Fog Light Freezing Fog
3:19 AM 28.4 °F 24.6 °F 28.4 °F 100% 30.50 in 0.5 mi SE 3.5 mph - N/A Fog Light Freezing Fog
3:24 AM 28.4 °F 24.6 °F 28.4 °F 100% 30.50 in 0.8 mi SE 3.5 mph - N/A   Mist
3:34 AM 28.4 °F - 28.4 °F 100% 30.49 in 0.8 mi SSE 2.3 mph - N/A   Mostly Cloudy
3:40 AM 28.4 °F 24.6 °F 28.4 °F 100% 30.50 in 2.0 mi South 3.5 mph - N/A   Mostly Cloudy
3:45 AM 30.2 °F 26.7 °F 28.4 °F 93% 30.49 in 6.0 mi South 3.5 mph - N/A   Overcast
3:58 AM 32.0 °F 28.7 °F 30.2 °F 93% 30.51 in 10.0 mi South 3.5 mph - N/A   Overcast
4:58 AM 32.4 °F - 32.2 °F 99% 30.52 in 10.0 mi WSW 2.3 mph - N/A   Overcast
5:23 AM 32.0 °F - 32.0 °F 100% 30.49 in 10.0 mi ESE 2.3 mph - N/A   Overcast
5:58 AM 33.6 °F - 33.6 °F 100% 30.51 in 7.0 mi SE 1.2 mph - N/A   Overcast
6:08 AM 33.8 °F 30.8 °F 33.8 °F 100% 30.49 in 8.0 mi ESE 3.5 mph - N/A   Overcast
6:33 AM 33.8 °F 29.6 °F 33.8 °F 100% 30.47 in 7.0 mi ESE 4.6 mph - N/A   Overcast
6:58 AM 35.6 °F 32.8 °F 35.6 °F 100% 30.49 in 2.5 mi ESE 3.5 mph - N/A   Overcast
7:03 AM 35.6 °F - 35.6 °F 100% 30.47 in 2.0 mi ESE 2.3 mph - N/A   Overcast
7:08 AM 35.6 °F - 35.6 °F 100% 30.47 in 1.5 mi SSE 2.3 mph - N/A   Overcast
7:13 AM 35.6 °F - 35.6 °F 100% 30.47 in 1.2 mi SSW 2.3 mph - N/A   Overcast
7:18 AM 35.6 °F - 35.6 °F 100% 30.47 in 1.0 mi South 2.3 mph - N/A   Mist
7:23 AM 35.6 °F 32.8 °F 35.6 °F 100% 30.46 in 0.8 mi SE 3.5 mph - N/A   Mist
7:28 AM 35.6 °F - 35.6 °F 100% 30.45 in 0.8 mi SE 2.3 mph - N/A   Mist
7:38 AM 35.6 °F - 35.6 °F 100% 30.45 in 0.8 mi Calm Calm - N/A   Mist
7:48 AM 35.6 °F - 35.6 °F 100% 30.46 in 0.5 mi WSW 1.2 mph - N/A Fog Fog
7:53 AM 35.6 °F - 35.6 °F 100% 30.46 in 0.2 mi Calm Calm - N/A Fog Fog
7:58 AM 35.2 °F - 35.2 °F 100% 30.49 in 0.2 mi West 2.3 mph - N/A Fog Fog
8:03 AM 35.6 °F 32.8 °F 35.6 °F 100% 30.47 in 0.2 mi WNW 3.5 mph - N/A Fog Fog
8:08 AM 35.6 °F - 35.6 °F 100% 30.47 in 0.5 mi WNW 1.2 mph - N/A Fog Fog
8:18 AM 35.6 °F - 35.6 °F 100% 30.47 in 0.5 mi Calm Calm - N/A Fog Fog
8:23 AM 35.6 °F - 35.6 °F 100% 30.46 in 0.5 mi SE 1.2 mph - N/A Fog Fog
8:28 AM 35.6 °F - 35.6 °F 100% 30.47 in 0.2 mi Calm Calm - N/A Fog Fog
8:33 AM 35.6 °F - 35.6 °F 100% 30.47 in 0.5 mi Calm Calm - N/A Fog Fog
8:38 AM 35.6 °F - 35.6 °F 100% 30.47 in 0.5 mi Calm Calm - N/A Fog Fog
8:43 AM 35.6 °F - 35.6 °F 100% 30.47 in 0.5 mi Calm Calm - N/A Fog Fog
8:48 AM 35.6 °F - 35.6 °F 100% 30.47 in 0.5 mi SSE 1.2 mph - N/A Fog Fog
8:53 AM 35.6 °F 32.8 °F 35.6 °F 100% 30.46 in 0.5 mi SSE 3.5 mph - N/A Fog Fog
8:58 AM 35.6 °F 32.8 °F 35.6 °F 100% 30.48 in 0.2 mi SSE 3.5 mph - N/A Fog Fog
9:03 AM 35.6 °F 32.8 °F 35.6 °F 100% 30.47 in 0.2 mi South 3.5 mph - N/A Fog Fog
9:08 AM 35.6 °F - 35.6 °F 100% 30.47 in 0.2 mi SSE 2.3 mph - N/A Fog Fog
9:13 AM 35.6 °F - 35.6 °F 100% 30.47 in 0.5 mi South 2.3 mph - N/A Fog Fog
9:18 AM 35.6 °F - 35.6 °F 100% 30.48 in 0.5 mi SSW 1.2 mph - N/A Fog Fog
9:23 AM 35.6 °F - 35.6 °F 100% 30.47 in 0.5 mi South 2.3 mph - N/A Fog Fog
9:33 AM 35.6 °F - 35.6 °F 100% 30.48 in 0.8 mi South 2.3 mph - N/A   Mist
9:38 AM 35.6 °F - 35.6 °F 100% 30.48 in 1.0 mi South 2.3 mph - N/A   Mist
9:43 AM 35.6 °F - 35.6 °F 100% 30.47 in 1.8 mi SSE 2.3 mph - N/A   Overcast
9:48 AM 37.4 °F - 37.4 °F 100% 30.47 in 2.5 mi South 2.3 mph - N/A   Overcast
9:53 AM 37.4 °F - 37.4 °F 100% 30.47 in 4.0 mi SSE 2.3 mph - N/A   Overcast
9:58 AM 36.7 °F - 36.7 °F 100% 30.49 in 5.0 mi South 2.3 mph - N/A   Overcast
10:58 AM 37.4 °F - 37.4 °F 100% 30.48 in 10.0 mi East 1.2 mph - N/A   Overcast
11:58 AM 37.8 °F - 37.8 °F 100% 30.45 in 10.0 mi ESE 2.3 mph - N/A   Overcast
12:48 PM 39.2 °F - 39.2 °F 100% 30.42 in 10.0 mi Variable 1.2 mph - N/A   Overcast
12:58 PM 38.7 °F - 38.7 °F 100% 30.44 in 10.0 mi North 1.2 mph - N/A   Overcast
1:13 PM 39.2 °F - 39.2 °F 100% 30.42 in 10.0 mi Variable 2.3 mph - N/A   Overcast
1:23 PM 39.2 °F 37.0 °F 39.2 °F 100% 30.42 in 10.0 mi WNW 3.5 mph - N/A   Overcast
1:48 PM 41.0 °F - 41.0 °F 100% 30.42 in 10.0 mi Variable 1.2 mph - N/A   Overcast
1:53 PM 41.0 °F - 41.0 °F 100% 30.42 in 10.0 mi Calm Calm - N/A   Overcast
1:58 PM 40.3 °F - 40.3 °F 100% 30.44 in 10.0 mi Calm Calm - N/A   Overcast
2:18 PM 41.0 °F - 41.0 °F 100% 30.42 in 10.0 mi SW 2.3 mph - N/A   Overcast
2:23 PM 41.0 °F - 41.0 °F 100% 30.42 in 10.0 mi SW 2.3 mph - N/A   Overcast
2:58 PM 41.0 °F - 39.4 °F 94% 30.44 in 10.0 mi Variable 2.3 mph - N/A   Overcast
3:53 PM 39.2 °F - 39.2 °F 100% 30.43 in 10.0 mi South 2.3 mph - N/A   Scattered Clouds
3:58 PM 39.6 °F - 39.2 °F 99% 30.45 in 10.0 mi South 1.2 mph - N/A   Partly Cloudy
4:58 PM 37.0 °F 34.5 °F 36.7 °F 99% 30.45 in 10.0 mi SSW 3.5 mph - N/A   Clear
5:43 PM 33.8 °F 30.8 °F 32.0 °F 93% 30.42 in 2.5 mi South 3.5 mph - N/A   Mostly Cloudy
5:48 PM 33.8 °F 30.8 °F 32.0 °F 93% 30.41 in 2.5 mi South 3.5 mph - N/A   Mostly Cloudy
5:53 PM 33.8 °F 30.8 °F 33.8 °F 100% 30.41 in 2.0 mi South 3.5 mph - N/A   Mostly Cloudy
5:58 PM 34.3 °F 31.4 °F 34.2 °F 99% 30.44 in 2.5 mi SSW 3.5 mph - N/A   Mostly Cloudy
6:03 PM 33.8 °F - 33.8 °F 100% 30.42 in 4.0 mi SW 2.3 mph - N/A   Overcast
6:58 PM 32.9 °F 27.5 °F 32.7 °F 99% 30.44 in 4.0 mi South 5.8 mph - N/A   Scattered Clouds
7:58 PM 31.5 °F - 31.1 °F 99% 30.43 in 10.0 mi SW 2.3 mph - N/A   Clear
8:58 PM 30.7 °F 27.3 °F 30.6 °F 99% 30.44 in 10.0 mi SSE 3.5 mph - N/A   Overcast
8:59 PM 32.0 °F 28.7 °F 32.0 °F 100% 30.42 in 10.0 mi SSE 3.5 mph - N/A   Overcast
9:09 PM 32.0 °F - 32.0 °F 100% 30.42 in 10.0 mi SSE 2.3 mph - N/A   Overcast
9:58 PM 32.7 °F - 32.5 °F 99% 30.43 in 10.0 mi South 2.3 mph - N/A   Overcast
10:28 PM 32.0 °F 28.7 °F 32.0 °F 100% 30.41 in 1.8 mi SSW 3.5 mph - N/A   Overcast
10:33 PM 32.0 °F 28.7 °F 32.0 °F 100% 30.41 in 1.0 mi South 3.5 mph - N/A   Mist
10:38 PM 32.0 °F - 32.0 °F 100% 30.41 in 0.8 mi SSW 1.2 mph - N/A   Mist
10:43 PM 32.0 °F - 32.0 °F 100% 30.41 in 0.5 mi South 2.3 mph - N/A Fog Fog
10:48 PM 32.0 °F - 32.0 °F 100% 30.41 in 0.5 mi SSW 1.2 mph - N/A Fog Fog
10:58 PM 32.0 °F - 32.0 °F 100% 30.44 in 0.5 mi Calm Calm - N/A Fog Fog
11:08 PM 32.0 °F 28.7 °F 32.0 °F 100% 30.41 in 0.5 mi South 3.5 mph - N/A Fog Fog
11:13 PM 32.0 °F - 32.0 °F 100% 30.42 in 0.5 mi South 2.3 mph - N/A Fog Fog
11:18 PM 32.0 °F 28.7 °F 32.0 °F 100% 30.42 in 0.8 mi South 3.5 mph - N/A   Mist
11:23 PM 32.0 °F 28.7 °F 32.0 °F 100% 30.42 in 1.0 mi South 3.5 mph - N/A   Mist
11:33 PM 32.0 °F 26.4 °F 32.0 °F 100% 30.42 in 0.8 mi SSE 5.8 mph - N/A   Mist
11:43 PM 32.0 °F 26.4 °F 32.0 °F 100% 30.41 in 0.8 mi ESE 5.8 mph - N/A   Mist
11:53 PM 33.8 °F 28.6 °F 33.8 °F 100% 30.40 in 0.5 mi ESE 5.8 mph - N/A Fog Fog
11:58 PM 34.2 °F 29.0 °F 34.2 °F 100% 30.41 in 0.5 mi ESE 5.8 mph - N/A Fog Fog